GW5308 Weather Reports


Display with metric or nautical units.
time (UTC)temp
F
wind
direction
speed
MPH
gust
MPH
rain 1hr
in
rain 24hr
in
rain mn
in
humidity
%
barometer
mb
20260506012014 67 0 0.0 0.0 0.00 0.00 0.00 78 1015.2
20260506011534 67 0 0.0 0.0 0.00 0.00 0.00 77 1015.2
20260506011015 68 0 0.0 0.0 0.00 0.00 0.00 77 1015.2
20260506010513 68 0 0.0 0.0 0.00 0.00 0.00 76 1015.1
20260506010031 69 0 0.0 0.0 0.00 0.00 0.00 75 1015.1
20260506005513 69 0 0.0 0.0 0.00 0.00 0.00 74 1015.0
20260506005015 70 0 0.0 0.0 0.00 0.00 0.00 72 1014.9
20260506004538 70 0 0.0 0.0 0.00 0.00 0.00 71 1014.9
20260506004013 71 0 0.0 0.0 0.00 0.00 0.00 70 1014.9
20260506003517 71 0 0.0 1.0 0.00 0.00 0.00 70 1014.7
20260506003030 71 0 0.0 1.0 0.00 0.00 0.00 69 1014.7
20260506002513 72 0 0.0 1.0 0.00 0.00 0.00 69 1014.6
20260506002015 72 0 0.0 1.0 0.00 0.00 0.00 68 1014.6
20260506001534 72 0 0.0 1.0 0.00 0.00 0.00 67 1014.5
20260506001011 73 0 0.0 1.0 0.00 0.00 0.00 67 1014.6
20260506000514 73 0 0.0 1.0 0.00 0.00 0.00 66 1014.5
20260506000040 73 277 0.0 1.0 0.00 0.00 0.00 66 1014.5
20260505235515 74 0 0.0 1.0 0.00 0.00 0.00 65 1014.5
20260505235013 74 0 0.0 2.0 0.00 0.00 0.00 64 1014.3
20260505234536 74 0 0.0 2.0 0.00 0.00 0.00 64 1014.3
20260505234014 75 350 0.0 6.0 0.00 0.00 0.00 63 1014.2
20260505233516 75 0 0.0 6.0 0.00 0.00 0.00 62 1014.4
20260505233033 75 0 0.0 6.0 0.00 0.00 0.00 62 1014.3
20260505232514 76 167 1.0 4.0 0.00 0.00 0.00 61 1014.2
20260505232015 76 279 1.0 5.0 0.00 0.00 0.00 61 1014.2
20260505231531 76 309 1.0 5.0 0.00 0.00 0.00 60 1014.3
20260505231011 76 356 1.0 7.0 0.00 0.00 0.00 60 1014.2
20260505230516 77 317 1.0 7.0 0.00 0.00 0.00 60 1014.2
20260505230034 77 297 1.0 5.0 0.00 0.00 0.00 59 1014.3
20260505225513 77 4 1.0 5.0 0.00 0.00 0.00 58 1014.2
20260505225013 78 259 0.0 4.0 0.00 0.00 0.00 58 1014.3
20260505224537 78 40 1.0 4.0 0.00 0.00 0.00 58 1014.3
20260505224013 78 319 1.0 4.0 0.00 0.00 0.00 57 1014.4
20260505223517 79 4 1.0 4.0 0.00 0.00 0.00 57 1014.3
20260505223456 79 46 0.0 6.0 0.00 0.00 0.00 57 1014.2
20260505221532 80 5 0.0 5.0 0.00 0.00 0.00 56 1014.1
20260505221015 80 343 1.0 6.0 0.00 0.00 0.00 56 1014.3
20260505220514 80 18 1.0 6.0 0.00 0.00 0.00 55 1014.3
20260505220041 80 9 2.0 7.0 0.00 0.00 0.00 55 1014.4
20260505215516 81 321 1.0 7.0 0.00 0.00 0.00 56 1014.3
20260505215014 81 23 2.0 6.0 0.00 0.00 0.00 54 1014.2
20260505214554 81 316 1.0 6.0 0.00 0.00 0.00 55 1014.2
20260505214015 81 46 1.0 6.0 0.00 0.00 0.00 54 1014.3
20260505213514 81 30 2.0 6.0 0.00 0.00 0.00 54 1014.3
20260505213050 81 53 2.0 6.0 0.00 0.00 0.00 54 1014.2
20260505212514 81 288 2.0 6.0 0.00 0.00 0.00 55 1014.3
20260505212016 82 356 2.0 5.0 0.00 0.00 0.00 54 1014.3
20260505211535 82 341 2.0 6.0 0.00 0.00 0.00 55 1014.2
20260505211014 82 267 2.0 7.0 0.00 0.00 0.00 55 1014.2
20260505210516 83 297 1.0 7.0 0.00 0.00 0.00 55 1014.2
20260505210032 82 1 1.0 7.0 0.00 0.00 0.00 55 1014.3
20260505205519 82 297 2.0 7.0 0.00 0.00 0.00 55 1014.3
20260505205021 82 240 1.0 8.0 0.00 0.00 0.00 55 1014.2
20260505204536 82 299 3.0 8.0 0.00 0.00 0.00 55 1014.1
20260505204015 83 338 1.0 5.0 0.00 0.00 0.00 54 1014.2
20260505203514 83 354 2.0 5.0 0.00 0.00 0.00 55 1014.2
20260505203044 83 0 0.0 4.0 0.00 0.00 0.00 56 1014.2
20260505202515 83 4 1.0 4.0 0.00 0.00 0.00 56 1014.3
20260505202016 83 67 0.0 5.0 0.00 0.00 0.00 56 1014.4
20260505201547 82 330 1.0 5.0 0.00 0.00 0.00 56 1014.5
20260505201014 82 98 2.0 5.0 0.00 0.00 0.00 55 1014.4
20260505200515 83 245 1.0 6.0 0.00 0.00 0.00 55 1014.6
20260505200033 82 82 2.0 6.0 0.00 0.00 0.00 58 1014.6
20260505195514 82 298 0.0 5.0 0.00 0.00 0.00 59 1014.7
20260505195015 81 0 1.0 5.0 0.00 0.00 0.00 58 1014.7
20260505194536 81 20 1.0 5.0 0.00 0.00 0.00 57 1014.6
20260505194018 81 8 1.0 5.0 0.00 0.00 0.00 58 1014.9
20260505193513 81 297 1.0 5.0 0.00 0.00 0.00 58 1014.9
20260505193044 80 292 1.0 3.0 0.00 0.00 0.00 58 1014.9
20260505192516 81 96 1.0 4.0 0.00 0.00 0.00 58 1014.8
20260505192015 81 6 1.0 4.0 0.00 0.00 0.00 57 1014.8
20260505191541 81 20 1.0 4.0 0.00 0.00 0.00 56 1014.9
20260505191018 81 312 0.0 6.0 0.00 0.00 0.00 55 1014.9
20260505190514 81 25 0.0 6.0 0.00 0.00 0.00 56 1015.0
20260505190036 81 300 2.0 7.0 0.00 0.00 0.00 56 1015.2
20260505185520 82 349 2.0 7.0 0.00 0.00 0.00 55 1015.1
20260505185013 83 48 1.0 5.0 0.00 0.00 0.00 54 1015.2
20260505184534 84 11 1.0 5.0 0.00 0.00 0.00 53 1015.2
20260505184014 85 34 1.0 5.0 0.00 0.00 0.00 52 1015.1
20260505183514 85 73 1.0 4.0 0.00 0.00 0.00 52 1015.0
20260505183045 85 326 1.0 5.0 0.00 0.00 0.00 53 1015.1
20260505182516 85 290 1.0 6.0 0.00 0.00 0.00 53 1015.1
20260505182016 85 318 1.0 6.0 0.00 0.00 0.00 53 1015.2
20260505181533 84 66 2.0 5.0 0.00 0.00 0.00 53 1015.4
20260505181021 84 0 0.0 3.0 0.00 0.00 0.00 56 1015.3
20260505180514 84 0 0.0 3.0 0.00 0.00 0.00 55 1015.4
20260505180036 84 288 0.0 2.0 0.00 0.00 0.00 54 1015.6
20260505175515 84 338 0.0 2.0 0.00 0.00 0.00 54 1015.8
20260505175020 84 0 0.0 4.0 0.00 0.00 0.00 56 1015.6
20260505174540 83 311 0.0 4.0 0.00 0.00 0.00 56 1015.6
20260505174016 83 15 1.0 4.0 0.00 0.00 0.00 54 1015.6
20260505173513 83 298 1.0 3.0 0.00 0.00 0.00 55 1015.7
20260505173038 82 273 1.0 6.0 0.00 0.00 0.00 59 1015.8
20260505172513 81 95 1.0 6.0 0.00 0.00 0.00 60 1015.7
20260505172025 82 360 1.0 5.0 0.00 0.00 0.00 57 1015.9
20260505171539 82 307 1.0 5.0 0.00 0.00 0.00 57 1015.8
20260505171016 81 16 1.0 5.0 0.00 0.00 0.00 57 1016.0
20260505170519 82 354 1.0 4.0 0.00 0.00 0.00 56 1015.9
20260505170034 82 285 1.0 4.0 0.00 0.00 0.00 59 1015.8
20260505165514 81 30 1.0 5.0 0.00 0.00 0.00 60 1015.9
20260505165014 80 300 1.0 5.0 0.00 0.00 0.00 58 1016.0
20260505164537 80 332 2.0 5.0 0.00 0.00 0.00 60 1016.0
20260505164016 80 0 1.0 5.0 0.00 0.00 0.00 61 1016.1
20260505163516 80 316 0.0 4.0 0.00 0.00 0.00 62 1016.1
20260505163035 79 0 1.0 4.0 0.00 0.00 0.00 62 1016.1
20260505162514 79 316 1.0 4.0 0.00 0.00 0.00 62 1016.1
20260505162016 79 15 0.0 3.0 0.00 0.00 0.00 62 1016.1
20260505161536 80 300 1.0 3.0 0.00 0.00 0.00 61 1016.1
20260505161013 80 333 0.0 0.0 0.00 0.00 0.00 60 1016.0
20260505160514 80 0 0.0 3.0 0.00 0.00 0.00 61 1016.1
20260505153034 80 0 0.0 4.0 0.00 0.00 0.00 61 1015.9
20260505152516 80 167 1.0 4.0 0.00 0.00 0.00 62 1016.0
20260505152020 80 335 0.0 2.0 0.00 0.00 0.00 60 1016.0
20260505151533 81 287 0.0 3.0 0.00 0.00 0.00 60 1016.0
20260505151015 80 271 1.0 3.0 0.00 0.00 0.00 61 1016.0
20260505150522 81 289 0.0 3.0 0.00 0.00 0.00 58 1016.1
20260505140522 78 90 1.0 3.0 0.00 0.00 0.00 66 1015.8
20260505125016 68 0 0.0 0.0 0.00 0.00 0.00 98 1015.7
20260505124533 66 0 0.0 0.0 0.00 0.00 0.00 100 1015.7
20260505124018 65 0 0.0 1.0 0.00 0.00 0.00 100 1015.5
20260505123516 64 0 0.0 1.0 0.00 0.00 0.00 100 1015.5
20260505123046 63 0 0.0 1.0 0.00 0.00 0.00 100 1015.6
20260505122518 61 0 0.0 0.0 0.00 0.00 0.00 100 1015.5
20260505122014 60 0 0.0 0.0 0.00 0.00 0.00 100 1015.5
20260505121534 59 0 0.0 0.0 0.00 0.00 0.00 100 1015.4
20260505121017 59 0 0.0 0.0 0.00 0.00 0.00 100 1015.4
20260505120515 58 0 0.0 0.0 0.00 0.00 0.00 100 1015.3
20260505120046 57 0 0.0 0.0 0.00 0.00 0.00 100 1015.2
20260505115513 57 0 0.0 0.0 0.00 0.00 0.00 100 1015.2
20260505115014 56 0 0.0 0.0 0.00 0.00 0.00 100 1015.2
20260505114546 56 0 0.0 0.0 0.00 0.00 0.00 100 1015.2
20260505114016 55 0 0.0 0.0 0.00 0.00 0.00 100 1015.3
20260505113513 55 0 0.0 0.0 0.00 0.00 0.00 100 1015.3
20260505113031 54 0 0.0 0.0 0.00 0.00 0.00 100 1015.2
20260505112512 54 0 0.0 0.0 0.00 0.00 0.00 100 1015.2
20260505112011 54 0 0.0 0.0 0.00 0.00 0.00 100 1015.2
20260505111529 54 0 0.0 0.0 0.00 0.00 0.00 100 1015.1
20260505111014 54 0 0.0 0.0 0.00 0.00 0.00 100 1015.0
20260505110511 53 0 0.0 0.0 0.00 0.00 0.00 100 1014.8
20260505102014 53 0 0.0 0.0 0.00 0.00 0.00 100 1014.3
20260505101530 53 0 0.0 0.0 0.00 0.00 0.00 100 1014.6
20260505101015 53 0 0.0 0.0 0.00 0.00 0.00 100 1014.6
20260505100512 53 0 0.0 0.0 0.00 0.00 0.00 100 1014.7
20260505100032 54 0 0.0 0.0 0.00 0.00 0.00 100 1014.6
20260505095514 53 0 0.0 0.0 0.00 0.00 0.00 100 1014.4
20260505095017 53 0 0.0 0.0 0.00 0.00 0.00 100 1014.3
20260505094534 53 0 0.0 0.0 0.00 0.00 0.00 100 1014.3
20260505094013 54 0 0.0 0.0 0.00 0.00 0.00 100 1014.2
20260505093514 54 0 0.0 0.0 0.00 0.00 0.00 100 1014.2
20260505093040 54 0 0.0 0.0 0.00 0.00 0.00 100 1014.2
20260505092515 54 0 0.0 0.0 0.00 0.00 0.00 100 1014.2
20260505092015 54 0 0.0 0.0 0.00 0.00 0.00 100 1014.1
20260505091540 54 0 0.0 0.0 0.00 0.00 0.00 100 1014.1
20260505091013 54 0 0.0 0.0 0.00 0.00 0.00 100 1014.2
20260505090514 54 0 0.0 0.0 0.00 0.00 0.00 100 1014.1
20260505090045 54 0 0.0 0.0 0.00 0.00 0.00 100 1013.9
20260505085511 54 0 0.0 0.0 0.00 0.00 0.00 100 1014.1
20260505085012 54 0 0.0 0.0 0.00 0.00 0.00 100 1014.1
20260505084532 54 0 0.0 0.0 0.00 0.00 0.00 100 1014.3
20260505084014 54 0 0.0 0.0 0.00 0.00 0.00 100 1014.3
20260505083516 54 0 0.0 0.0 0.00 0.00 0.00 100 1014.2
20260505083030 54 0 0.0 0.0 0.00 0.00 0.00 100 1014.0
20260505082512 54 0 0.0 0.0 0.00 0.00 0.00 100 1014.0
20260505082013 54 0 0.0 0.0 0.00 0.00 0.00 100 1014.0
20260505081542 54 0 0.0 0.0 0.00 0.00 0.00 100 1013.8
20260505081015 54 0 0.0 0.0 0.00 0.00 0.00 100 1013.9
20260505080516 54 0 0.0 0.0 0.00 0.00 0.00 100 1014.0
20260505080046 54 0 0.0 0.0 0.00 0.00 0.00 100 1014.1
20260505075516 54 0 0.0 0.0 0.00 0.00 0.00 100 1014.1
20260505075016 54 0 0.0 0.0 0.00 0.00 0.00 100 1014.1
20260505074530 54 0 0.0 0.0 0.00 0.00 0.00 100 1014.2
20260505074015 54 0 0.0 0.0 0.00 0.00 0.00 100 1014.1
20260505073514 54 0 0.0 0.0 0.00 0.00 0.00 100 1014.0
20260505073045 54 0 0.0 0.0 0.00 0.00 0.00 99 1014.2
20260505072512 54 0 0.0 0.0 0.00 0.00 0.00 100 1014.2
20260505072015 54 0 0.0 0.0 0.00 0.00 0.00 100 1014.1
20260505071534 54 0 0.0 0.0 0.00 0.00 0.00 100 1014.1
20260505071014 54 0 0.0 0.0 0.00 0.00 0.00 99 1014.0
20260505070514 54 0 0.0 0.0 0.00 0.00 0.00 99 1014.0
20260505070034 55 0 0.0 0.0 0.00 0.00 0.00 99 1014.1
20260505065515 55 0 0.0 0.0 0.00 0.00 0.00 99 1014.2
20260505065013 55 0 0.0 0.0 0.00 0.00 0.00 99 1014.2
20260505064531 55 0 0.0 0.0 0.00 0.00 0.00 99 1014.2
20260505064016 55 0 0.0 0.0 0.00 0.00 0.00 99 1014.3
20260505063518 55 0 0.0 0.0 0.00 0.00 0.00 99 1014.4
20260505063033 55 0 0.0 0.0 0.00 0.00 0.00 99 1014.4
20260505062515 55 0 0.0 0.0 0.00 0.00 0.00 99 1014.5
20260505062014 55 0 0.0 0.0 0.00 0.00 0.00 99 1014.5
20260505061535 55 0 0.0 0.0 0.00 0.00 0.00 99 1014.5
20260505061015 55 0 0.0 0.0 0.00 0.00 0.00 99 1014.5
20260505060514 55 0 0.0 0.0 0.00 0.00 0.00 99 1014.5
20260505060036 55 0 0.0 0.0 0.00 0.00 0.00 99 1014.6
20260505055518 55 0 0.0 0.0 0.00 0.00 0.00 98 1014.6
20260505055017 55 0 0.0 0.0 0.00 0.00 0.00 98 1014.7
20260505054535 55 0 0.0 0.0 0.00 0.00 0.00 98 1014.6
20260505054014 56 0 0.0 0.0 0.00 0.00 0.00 98 1014.9
20260505053513 56 0 0.0 0.0 0.00 0.00 0.00 98 1014.9
20260505053034 56 0 0.0 0.0 0.00 0.00 0.00 99 1015.0
20260505052520 55 0 0.0 0.0 0.00 0.00 0.00 98 1015.0
20260505052018 55 0 0.0 0.0 0.00 0.00 0.00 97 1015.1
20260505051536 56 0 0.0 0.0 0.00 0.00 0.00 98 1015.1
20260505051011 56 0 0.0 0.0 0.00 0.00 0.00 97 1015.3
20260505050516 56 0 0.0 0.0 0.00 0.00 0.00 97 1015.4
20260505050109 56 0 0.0 0.0 0.00 0.00 0.00 97 1015.3
20260505041547 56 0 0.0 0.0 0.00 0.00 0.00 96 1015.4
20260505041014 57 0 0.0 0.0 0.00 0.00 0.00 96 1015.4
20260505040513 56 0 0.0 0.0 0.00 0.00 0.00 96 1015.4
20260505040031 57 0 0.0 0.0 0.00 0.00 0.00 95 1015.4
20260505035512 57 0 0.0 0.0 0.00 0.00 0.00 95 1015.5
20260505035014 57 0 0.0 0.0 0.00 0.00 0.00 96 1015.5
20260505034532 57 0 0.0 0.0 0.00 0.00 0.00 95 1015.5
20260505034015 57 0 0.0 0.0 0.00 0.00 0.00 95 1015.6
20260505033513 57 0 0.0 0.0 0.00 0.00 0.00 95 1015.7
20260505033032 57 0 0.0 0.0 0.00 0.00 0.00 95 1015.8
20260505032516 57 0 0.0 0.0 0.00 0.00 0.00 94 1015.8
20260505032011 57 0 0.0 0.0 0.00 0.00 0.00 94 1015.8
20260505031540 57 0 0.0 0.0 0.00 0.00 0.00 93 1015.9
20260505031013 58 0 0.0 0.0 0.00 0.00 0.00 93 1015.9
20260505030513 58 0 0.0 0.0 0.00 0.00 0.00 94 1015.9
20260505030037 58 0 0.0 0.0 0.00 0.00 0.00 92 1015.9
20260505025513 58 0 0.0 0.0 0.00 0.00 0.00 92 1015.9
20260505025013 58 0 0.0 0.0 0.00 0.00 0.00 91 1015.9
20260505024531 58 0 0.0 0.0 0.00 0.00 0.00 91 1015.9
20260505024013 58 0 0.0 0.0 0.00 0.00 0.00 90 1015.9
20260505023512 59 0 0.0 0.0 0.00 0.00 0.00 90 1015.9
20260505023039 59 0 0.0 0.0 0.00 0.00 0.00 90 1015.9
20260505022515 59 0 0.0 0.0 0.00 0.00 0.00 89 1015.9
20260505022016 60 0 0.0 0.0 0.00 0.00 0.00 89 1015.9
20260505021534 60 0 0.0 0.0 0.00 0.00 0.00 89 1015.9
20260505021013 60 0 0.0 0.0 0.00 0.00 0.00 88 1015.9
20260505020515 60 0 0.0 0.0 0.00 0.00 0.00 87 1015.9
20260505020036 61 0 0.0 0.0 0.00 0.00 0.00 87 1015.9
20260505015517 61 0 0.0 0.0 0.00 0.00 0.00 87 1015.9
20260505015014 61 0 0.0 0.0 0.00 0.00 0.00 86 1015.8
20260505014549 61 0 0.0 0.0 0.00 0.00 0.00 86 1015.7
20260505014013 62 0 0.0 0.0 0.00 0.00 0.00 86 1015.7
20260505013513 62 0 0.0 0.0 0.00 0.00 0.00 85 1015.7
20260505013036 62 0 0.0 0.0 0.00 0.00 0.00 84 1015.6
20260505012516 62 0 0.0 0.0 0.00 0.00 0.00 82 1015.4